Location: Newark
(25.6108°S, 54.5803°W)
Time: 08:53:32
(UTC+00:00)

Tiros 1 - Pass Details

Date: 04 November 2020
Orbit: 630 x 664 km, 48.4° (Epoch: 29 November)

Event Time Altitude Azimuth Distance (km) Brightness Sun altitude
Rises 14:00:11 0° 336° (NNW) 2,926 10.5 68.5°
Reaches altitude 10° 14:02:39 10° 344° (NNW) 2,030 9.9 69.0°
Maximum altitude 14:06:54 35° 50° (NE) 1,044 9.3 69.8°
Drops below altitude 10° 14:11:15 10° 115° (ESE) 2,069 10.1 70.7°
Sets 14:13:46 0° 124° (SE) 2,992 10.7 71.2°
